QPF
0.00 0.00 0.00 0.00 0.00 0.00 0.00 0.00 0.00 0.00 0.00 0.00 0.00 0.00 0.00 0.00 0.01 0.00 0.00 0.00 0.00 0.00 0.00 0.00 0.00 0.00 0.00 0.00 0.00 0.00 0.01 0.00 0.01 0.02 0.01 0.00 0.00 0.00 0.00 0.00 0.00 0.00 0.00 0.00 0.00 0.00 0.00 0.00 0.00 0.00 0.00 0.00 0.00 0.00
0.00 0.00 0.00 0.00 0.00 0.00 0.00 0.00 0.00 0.00 0.01 0.00 0.01 0.01 0.00 0.00 0.00 0.01 0.00 0.00 0.00 0.00 0.00 0.00 0.00 0.00 0.00 0.00 0.00 0.00 0.00 0.00 0.01 0.02 0.01 0.00 0.00 0.00 0.00 0.00 0.00 0.00 0.00 0.00 0.00 0.00 0.00 0.00 0.00 0.00 0.00 0.00 0.00 0.00
0.00 0.00 0.00 0.00 0.00 0.00 0.00 0.00 0.00 0.00 0.00 0.01 0.01 0.01 0.00 0.00 0.01 0.02 0.00 0.00 0.00 0.01 0.00 0.00 0.00 0.00 0.00 0.00 0.00 0.00 0.00 0.00 0.00 0.00 0.00 0.01 0.01 0.00 0.00 0.00 0.00 0.00 0.00 0.00 0.00 0.00 0.00 0.00 0.00 0.00 0.00 0.00 0.00 0.00
0.00 0.00 0.00 0.00 0.00 0.00 0.00 0.00 0.01 0.01 0.00 0.00 0.01 0.00 0.00 0.00 0.01 0.03 0.01 0.00 0.01 0.01 0.00 0.00 0.00 0.00 0.00 0.00 0.00 0.00 0.00 0.00 0.00 0.00 0.00 0.00 0.01 0.00 0.00 0.00 0.00 0.00 0.00 0.00 0.00 0.00 0.00 0.00 0.00 0.00 0.00 0.00 0.00 0.00
0.00 0.00 0.00 0.00 0.00 0.00 0.01 0.02 0.01 0.00 0.00 0.00 0.01 0.00 0.00 0.01 0.02 0.00 0.00 0.00 0.01 0.01 0.01 0.00 0.00 0.00 0.00 0.00 0.00 0.00 0.00 0.00 0.00 0.00 0.00 0.00 0.01 0.01 0.00 0.00 0.00 0.00 0.00 0.00 0.00 0.00 0.00 0.00 0.00 0.00 0.00 0.00 0.00 0.00
0.00 0.00 0.00 0.00 0.00 0.01 0.00 0.00 0.00 0.00 0.00 0.00 0.01 0.00 0.01 0.01 0.00 0.00 0.00 0.00 0.00 0.00 0.01 0.00 0.00 0.00 0.00 0.00 0.00 0.00 0.00 0.00 0.00 0.00 0.00 0.00 0.00 0.01 0.01 0.00 0.00 0.00 0.00 0.00 0.00 0.00 0.00 0.00 0.00 0.00 0.00 0.00 0.00 0.00
0.00 0.00 0.00 0.00 0.00 0.00 0.00 0.00 0.00 0.00 0.00 0.00 0.01 0.01 0.00 0.00 0.00 0.00 0.00 0.00 0.00 0.00 0.01 0.00 0.00 0.00 0.00 0.00 0.00 0.00 0.00 0.01 0.01 0.01 0.00 0.00 0.00 0.00 0.01 0.00 0.00 0.00 0.00 0.00 0.00 0.00 0.00 0.00 0.00 0.00 0.00 0.00 0.00 0.00
0.00 0.00 0.00 0.00 0.00 0.00 0.00 0.00 0.00 0.00 0.00 0.01 0.01 0.00 0.00 0.00 0.00 0.00 0.00 0.00 0.00 0.00 0.00 0.00 0.00 0.00 0.00 0.00 0.00 0.00 0.00 0.01 0.02 0.02 0.00 0.00 0.00 0.01 0.00 0.00 0.00 0.00 0.00 0.00 0.00 0.00 0.00 0.00 0.00 0.00 0.00 0.00 0.00 0.00
0.00 0.00 0.00 0.00 0.00 0.00 0.00 0.00 0.00 0.00 0.00 0.00 0.00 0.00 0.00 0.00 0.00 0.00 0.00 0.00 0.00 0.00 0.00 0.00 0.00 0.00 0.00 0.00 0.01 0.00 0.00 0.00 0.00 0.02 0.02 0.02 0.02 0.01 0.00 0.00 0.00 0.00 0.00 0.00 0.00 0.00 0.00 0.00 0.00 0.00 0.00 0.00 0.00 0.00
0.00 0.00 0.00 0.00 0.00 0.00 0.00 0.00 0.00 0.00 0.00 0.00 0.00 0.00 0.00 0.00 0.00 0.00 0.00 0.00 0.00 0.00 0.00 0.00 0.00 0.00 0.00 0.00 0.00 0.00 0.00 0.01 0.01 0.00 0.02 0.02 0.01 0.00 0.00 0.00 0.00 0.00 0.00 0.00 0.00 0.00 0.00 0.00 0.00 0.00 0.00 0.00 0.00 0.00
0.00 0.00 0.00 0.00 0.00 0.00 0.00 0.00 0.00 0.00 0.00 0.00 0.00 0.00 0.00 0.00 0.00 0.00 0.00 0.00 0.00 0.00 0.00 0.00 0.00 0.00 0.00 0.00 0.00 0.00 0.00 0.00 0.00 0.00 0.00 0.00 0.00 0.00 0.00 0.00 0.00 0.00 0.00 0.00 0.00 0.00 0.00 0.00 0.00 0.00 0.00 0.00 0.00 0.00
0.01 0.00 0.00 0.00 0.00 0.00 0.00 0.00 0.00 0.00 0.00 0.00 0.00 0.00 0.00 0.00 0.00 0.00 0.00 0.00 0.00 0.00 0.00 0.00 0.00 0.00 0.00 0.00 0.00 0.00 0.00 0.00 0.00 0.00 0.00 0.00 0.00 0.00 0.00 0.00 0.00 0.00 0.00 0.00 0.00 0.00 0.00 0.00 0.00 0.00 0.00 0.00 0.00 0.00
0.00 0.00 0.00 0.00 0.00 0.00 0.00 0.00 0.00 0.00 0.00 0.00 0.00 0.00 0.00 0.00 0.00 0.00 0.00 0.00 0.00 0.00 0.00 0.00 0.00 0.00 0.00 0.00 0.00 0.00 0.00 0.00 0.00 0.00 0.00 0.00 0.00 0.00 0.00 0.00 0.00 0.00 0.00 0.00 0.00 0.00 0.00 0.00 0.00 0.00 0.00 0.00 0.00 0.00
0.00 0.00 0.01 0.00 0.00 0.00 0.00 0.00 0.00 0.00 0.00 0.00 0.00 0.00 0.00 0.00 0.00 0.00 0.00 0.00 0.00 0.00 0.00 0.00 0.00 0.00 0.00 0.00 0.00 0.00 0.00 0.00 0.00 0.00 0.00 0.00 0.00 0.00 0.00 0.00 0.00 0.00 0.00 0.00 0.00 0.00 0.00 0.00 0.00 0.00 0.00 0.00 0.00 0.00
0.00 0.00 0.00 0.00 0.00 0.00 0.00 0.00 0.00 0.00 0.00 0.00 0.00 0.00 0.00 0.00 0.00 0.00 0.00 0.00 0.00 0.00 0.00 0.00 0.00 0.00 0.00 0.00 0.00 0.00 0.00 0.00 0.00 0.00 0.00 0.00 0.00 0.00 0.00 0.00 0.00 0.00 0.00 0.00 0.00 0.00 0.00 0.00 0.00 0.00 0.00 0.00 0.00 0.00
0.00 0.00 0.00 0.00 0.00 0.00 0.00 0.00 0.00 0.00 0.00 0.00 0.00 0.00 0.00 0.00 0.00 0.00 0.00 0.00 0.00 0.00 0.00 0.00 0.00 0.00 0.00 0.00 0.00 0.00 0.00 0.00 0.00 0.00 0.00 0.00 0.00 0.00 0.00 0.00 0.00 0.00 0.00 0.00 0.00 0.00 0.00 0.00 0.00 0.00 0.00 0.00 0.00 0.00
0.00 0.00 0.00 0.00 0.00 0.00 0.00 0.00 0.00 0.00 0.00 0.00 0.00 0.00 0.00 0.00 0.00 0.00 0.00 0.00 0.00 0.00 0.00 0.00 0.00 0.00 0.00 0.00 0.00 0.00 0.00 0.00 0.00 0.00 0.00 0.00 0.00 0.00 0.00 0.00 0.00 0.00 0.00 0.00 0.00 0.00 0.00 0.00 0.00 0.00 0.00 0.00 0.00 0.00
0.00 0.00 0.00 0.00 0.00 0.00 0.00 0.00 0.00 0.00 0.00 0.00 0.00 0.00 0.00 0.00 0.00 0.00 0.00 0.00 0.00 0.00 0.00 0.00 0.00 0.00 0.00 0.00 0.00 0.00 0.00 0.00 0.00 0.00 0.00 0.00 0.00 0.00 0.00 0.00 0.00 0.00 0.00 0.00 0.00 0.00 0.00 0.00 0.00 0.00 0.00 0.00 0.00 0.00
0.00 0.00 0.00 0.00 0.00 0.00 0.00 0.00 0.00 0.00 0.00 0.00 0.00 0.00 0.00 0.00 0.00 0.00 0.00 0.00 0.00 0.00 0.00 0.00 0.00 0.00 0.00 0.00 0.00 0.00 0.00 0.00 0.00 0.00 0.00 0.00 0.00 0.00 0.00 0.00 0.00 0.00 0.00 0.00 0.00 0.00 0.00 0.00 0.00 0.00 0.00 0.00 0.00 0.00
0.00 0.00 0.00 0.00 0.00 0.00 0.00 0.00 0.00 0.00 0.00 0.00 0.00 0.00 0.00 0.00 0.00 0.00 0.00 0.00 0.00 0.00 0.00 0.00 0.00 0.00 0.00 0.00 0.00 0.00 0.00 0.00 0.00 0.00 0.00 0.00 0.00 0.00 0.00 0.00 0.00 0.00 0.00 0.00 0.00 0.00 0.00 0.00 0.00 0.00 0.00 0.00 0.00 0.00
0.00 0.00 0.00 0.00 0.00 0.00 0.00 0.00 0.00 0.00 0.00 0.00 0.00 0.00 0.00 0.00 0.00 0.00 0.00 0.00 0.00 0.00 0.00 0.00 0.00 0.00 0.00 0.00 0.00 0.00 0.00 0.00 0.00 0.00 0.00 0.00 0.00 0.00 0.00 0.00 0.00 0.00 0.00 0.00 0.00 0.00 0.00 0.00 0.00 0.00 0.00 0.00 0.00 0.00
0.00 0.00 0.00 0.00 0.00 0.00 0.00 0.00 0.00 0.00 0.00 0.00 0.00 0.00 0.00 0.00 0.00 0.00 0.00 0.00 0.00 0.00 0.00 0.00 0.00 0.00 0.00 0.00 0.00 0.00 0.00 0.00 0.00 0.00 0.00 0.00 0.00 0.00 0.00 0.00 0.00 0.00 0.00 0.00 0.00 0.00 0.00 0.00 0.00 0.00 0.00 0.00 0.00 0.00
0.00 0.00 0.00 0.00 0.00 0.00 0.00 0.00 0.00 0.00 0.00 0.00 0.00 0.00 0.00 0.00 0.00 0.00 0.00 0.00 0.00 0.00 0.00 0.00 0.00 0.00 0.00 0.00 0.00 0.00 0.00 0.00 0.00 0.00 0.00 0.00 0.00 0.00 0.00 0.00 0.00 0.00 0.00 0.00 0.00 0.00 0.00 0.00 0.00 0.00 0.00 0.00 0.00 0.00
0.00 0.00 0.00 0.00 0.00 0.00 0.00 0.00 0.00 0.00 0.00 0.00 0.00 0.00 0.00 0.00 0.00 0.00 0.00 0.00 0.00 0.00 0.00 0.00 0.00 0.00 0.00 0.00 0.00 0.00 0.00 0.00 0.00 0.00 0.00 0.00 0.00 0.00 0.00 0.00 0.00 0.00 0.00 0.00 0.00 0.00 0.00 0.00 0.00 0.00 0.00 0.00 0.00 0.00
0.00 0.00 0.00 0.00 0.00 0.00 0.00 0.00 0.00 0.00 0.00 0.00 0.00 0.00 0.00 0.00 0.00 0.00 0.00 0.00 0.00 0.00 0.00 0.00 0.00 0.00 0.00 0.00 0.00 0.00 0.00 0.00 0.00 0.00 0.00 0.00 0.00 0.00 0.00 0.00 0.00 0.00 0.00 0.00 0.00 0.00 0.00 0.00 0.00 0.00 0.00 0.00 0.00 0.00
0.00 0.00 0.00 0.00 0.00 0.00 0.00 0.00 0.00 0.00 0.00 0.00 0.00 0.00 0.00 0.00 0.00 0.00 0.00 0.00 0.00 0.00 0.00 0.00 0.00 0.00 0.00 0.00 0.00 0.00 0.00 0.00 0.00 0.00 0.00 0.00 0.00 0.00 0.00 0.00 0.00 0.00 0.00 0.00 0.00 0.00 0.00 0.00 0.00 0.00 0.00 0.00 0.00 0.00
0.00 0.00 0.00 0.00 0.00 0.00 0.00 0.00 0.00 0.00 0.00 0.00 0.00 0.00 0.00 0.00 0.00 0.00 0.00 0.00 0.00 0.00 0.00 0.00 0.00 0.00 0.00 0.00 0.00 0.00 0.00 0.00 0.00 0.00 0.00 0.00 0.00 0.00 0.00 0.00 0.00 0.00 0.00 0.00 0.00 0.00 0.00 0.00 0.00 0.00 0.00 0.00 0.00 0.00
0.00 0.00 0.00 0.00 0.00 0.00 0.00 0.00 0.00 0.00 0.00 0.00 0.00 0.00 0.00 0.00 0.00 0.00 0.00 0.00 0.00 0.00 0.00 0.00 0.00 0.00 0.00 0.00 0.00 0.00 0.00 0.00 0.00 0.00 0.00 0.00 0.00 0.00 0.00 0.00 0.00 0.00 0.00 0.00 0.00 0.00 0.00 0.00 0.00 0.00 0.00 0.00 0.00 0.00
0.00 0.00 0.00 0.00 0.00 0.00 0.00 0.00 0.00 0.00 0.00 0.00 0.00 0.00 0.00 0.00 0.00 0.00 0.00 0.00 0.00 0.00 0.00 0.00 0.00 0.00 0.00 0.00 0.00 0.00 0.00 0.00 0.00 0.00 0.00 0.00 0.00 0.00 0.00 0.00 0.00 0.00 0.00 0.00 0.00 0.00 0.00 0.00 0.00 0.00 0.00 0.00 0.00 0.00
0.00 0.00 0.00 0.00 0.00 0.00 0.00 0.00 0.00 0.00 0.00 0.00 0.00 0.00 0.00 0.00 0.00 0.00 0.00 0.00 0.00 0.00 0.00 0.00 0.00 0.00 0.00 0.00 0.00 0.00 0.00 0.00 0.00 0.00 0.00 0.00 0.00 0.00 0.00 0.00 0.00 0.00 0.00 0.00 0.00 0.00 0.00 0.00 0.00 0.00 0.00 0.00 0.00 0.00
0.00 0.00 0.00 0.00 0.00 0.00 0.00 0.00 0.00 0.00 0.00 0.00 0.00 0.00 0.00 0.00 0.00 0.00 0.00 0.00 0.00 0.00 0.00 0.00 0.00 0.00 0.00 0.00 0.00 0.00 0.00 0.00 0.00 0.00 0.00 0.00 0.00 0.00 0.00 0.00 0.00 0.00 0.00 0.00 0.00 0.00 0.00 0.00 0.00 0.00 0.00 0.00 0.00 0.00
0.00 0.00 0.00 0.00 0.00 0.00 0.00 0.00 0.00 0.00 0.00 0.00 0.00 0.00 0.00 0.00 0.00 0.00 0.00 0.00 0.00 0.00 0.00 0.00 0.00 0.00 0.00 0.00 0.00 0.00 0.00 0.00 0.00 0.00 0.00 0.00 0.00 0.00 0.00 0.00 0.00 0.00 0.00 0.00 0.00 0.00 0.00 0.00 0.00 0.00 0.00 0.00 0.00 0.00
0.00 0.00 0.00 0.00 0.00 0.00 0.00 0.00 0.00 0.00 0.00 0.00 0.00 0.00 0.00 0.00 0.00 0.00 0.00 0.00 0.00 0.00 0.00 0.00 0.00 0.00 0.00 0.00 0.00 0.00 0.00 0.00 0.00 0.00 0.00 0.00 0.00 0.00 0.00 0.00 0.00 0.00 0.00 0.00 0.00 0.00 0.00 0.00 0.00 0.00 0.00 0.00 0.00 0.00
MSLP
1019.67 1020.24 1020.57 1020.71 1020.93 1020.94 1020.68 1020.39 1020.52 1020.56 1020.58 1020.23 1020.39 1020.33 1019.99 1019.96 1019.65 1019.46 1018.81 1019.24 1019.20 1018.49 1017.40 1017.04 1016.93 1016.47 1015.90 1015.63 1015.04 1014.74 1013.84 1012.99 1012.73 1012.08 1011.28 1010.23 1009.56 1008.90 1008.73 1008.55 1008.86 1009.27 1009.63 1009.59 1009.61 1009.18 1008.01 1007.35 1007.80 1007.61 1007.51 1007.82 1008.21 1008.78
1019.46 1019.98 1020.30 1020.36 1020.57 1020.79 1020.52 1020.26 1020.27 1020.42 1020.47 1020.13 1019.84 1019.81 1020.09 1019.88 1019.53 1019.63 1019.25 1019.11 1019.41 1019.11 1017.58 1017.19 1016.93 1016.83 1016.88 1016.65 1016.69 1015.85 1015.43 1014.83 1014.23 1013.54 1011.92 1010.58 1009.35 1008.43 1008.14 1007.85 1008.36 1008.48 1008.06 1008.12 1008.20 1007.63 1007.32 1007.33 1007.25 1007.70 1008.00 1008.15 1008.48 1008.90
1019.25 1019.73 1020.15 1020.22 1020.27 1020.31 1020.06 1020.08 1019.90 1020.01 1020.12 1019.83 1019.96 1019.60 1019.73 1019.54 1019.49 1019.22 1019.21 1019.37 1019.36 1018.65 1017.22 1016.66 1016.35 1016.43 1016.61 1016.77 1016.92 1016.93 1015.82 1015.70 1015.91 1016.46 1014.64 1012.05 1009.95 1008.49 1007.69 1007.34 1007.62 1007.89 1007.73 1007.95 1007.79 1006.87 1007.13 1007.31 1007.63 1008.05 1008.38 1008.61 1008.99 1009.35
1018.99 1019.44 1019.84 1019.94 1019.91 1020.02 1019.92 1019.95 1019.80 1019.84 1019.92 1019.63 1019.68 1019.59 1019.47 1019.23 1019.22 1018.95 1019.06 1019.01 1019.02 1018.95 1018.04 1016.42 1016.42 1016.34 1016.23 1016.29 1016.50 1016.64 1016.41 1016.48 1016.79 1017.11 1015.87 1013.39 1011.02 1009.07 1007.84 1007.18 1006.87 1006.75 1007.45 1007.33 1007.07 1006.86 1007.20 1007.21 1007.39 1007.98 1008.63 1009.03 1009.34 1009.61
1019.02 1019.45 1019.53 1019.64 1019.77 1019.62 1019.48 1019.48 1019.53 1019.74 1019.75 1019.66 1019.53 1019.32 1019.08 1018.89 1018.77 1018.66 1018.50 1018.54 1018.71 1019.17 1018.14 1016.74 1016.20 1015.92 1015.69 1015.98 1016.19 1016.46 1016.67 1016.79 1016.83 1016.54 1015.94 1014.15 1011.85 1010.17 1008.63 1007.71 1006.58 1006.70 1006.33 1006.52 1006.06 1006.05 1006.34 1006.52 1007.37 1008.32 1008.77 1009.18 1009.63 1009.83
1018.82 1019.22 1019.28 1019.47 1019.62 1019.39 1019.13 1019.25 1019.28 1019.41 1019.55 1019.43 1019.43 1019.27 1018.95 1018.54 1018.43 1018.50 1018.52 1018.92 1018.97 1018.99 1018.70 1017.37 1016.16 1015.77 1015.79 1015.88 1015.95 1016.17 1016.43 1016.65 1016.77 1016.24 1015.27 1013.87 1012.89 1011.61 1008.56 1006.66 1005.78 1005.60 1005.96 1006.10 1006.21 1006.68 1007.07 1007.58 1008.40 1009.04 1009.31 1009.67 1010.00 1010.12
1018.73 1018.88 1018.93 1019.28 1019.50 1019.43 1019.08 1019.19 1019.35 1019.41 1019.52 1019.47 1019.23 1019.37 1019.16 1018.72 1018.38 1018.45 1018.67 1018.83 1019.03 1019.15 1019.11 1017.80 1016.46 1015.74 1016.02 1016.13 1016.05 1016.14 1016.20 1016.45 1016.49 1016.09 1014.98 1014.08 1013.12 1012.28 1009.00 1006.26 1005.48 1005.57 1006.11 1006.76 1007.26 1007.58 1008.05 1008.62 1008.92 1009.74 1010.04 1010.19 1010.27 1010.19
1018.67 1018.65 1018.69 1019.18 1019.43 1019.38 1019.32 1019.27 1018.90 1019.17 1019.43 1019.33 1019.01 1018.93 1019.00 1018.81 1018.84 1018.55 1018.75 1018.96 1019.09 1019.47 1019.40 1018.36 1016.83 1016.08 1015.91 1015.39 1015.70 1015.90 1015.91 1016.01 1015.60 1014.98 1013.83 1012.97 1012.39 1012.18 1009.06 1006.53 1006.37 1006.41 1006.83 1007.45 1007.99 1008.56 1008.99 1009.55 1009.94 1010.18 1010.44 1010.45 1010.35 1010.12
1018.52 1018.74 1018.93 1019.02 1019.18 1019.18 1019.18 1019.13 1019.10 1019.19 1019.05 1019.15 1018.94 1018.98 1019.05 1018.88 1018.87 1018.94 1018.98 1018.96 1019.30 1019.85 1018.97 1018.26 1017.14 1015.69 1015.97 1015.47 1015.23 1015.58 1015.38 1015.19 1014.41 1013.73 1012.67 1011.55 1011.06 1010.72 1009.01 1007.48 1006.99 1007.18 1007.45 1007.76 1008.94 1009.45 1009.78 1010.08 1010.44 1010.70 1010.79 1010.73 1010.58 1010.31
1018.16 1018.60 1019.00 1018.87 1019.07 1019.06 1018.61 1018.97 1019.10 1019.24 1019.03 1018.88 1018.98 1019.15 1018.94 1018.92 1019.16 1019.19 1018.94 1019.15 1019.39 1019.36 1019.08 1017.99 1017.05 1016.01 1015.83 1014.83 1014.69 1014.60 1014.19 1013.40 1012.42 1011.36 1010.63 1010.15 1009.67 1009.34 1009.15 1008.66 1007.92 1008.35 1008.71 1009.08 1009.54 1010.03 1010.46 1010.80 1011.08 1011.11 1011.28 1011.29 1011.08 1010.78
1017.88 1018.37 1018.80 1018.61 1019.06 1018.78 1018.75 1018.95 1019.07 1019.29 1018.97 1019.08 1019.12 1019.33 1019.43 1019.22 1019.06 1018.68 1018.40 1018.50 1018.37 1018.27 1017.93 1017.20 1016.64 1015.86 1015.02 1014.62 1013.79 1013.46 1012.45 1011.89 1010.61 1009.76 1009.79 1009.44 1008.92 1009.03 1009.47 1009.66 1009.70 1009.74 1009.70 1010.10 1010.38 1010.68 1011.00 1011.36 1011.67 1011.82 1011.83 1011.65 1011.29 1010.97
1017.93 1018.20 1018.53 1018.49 1019.15 1018.92 1018.81 1018.82 1019.23 1019.48 1019.48 1020.00 1020.28 1020.01 1019.64 1019.02 1018.79 1018.65 1017.99 1017.76 1017.73 1017.30 1016.98 1016.62 1015.96 1015.45 1014.51 1013.93 1012.86 1011.96 1011.26 1010.73 1009.59 1009.51 1009.11 1008.62 1008.94 1009.64 1009.88 1010.27 1010.48 1010.51 1010.56 1010.71 1010.87 1011.18 1011.50 1011.86 1012.07 1012.14 1012.06 1011.90 1011.73 1011.44
1017.88 1018.01 1018.44 1018.41 1018.70 1018.91 1018.98 1019.11 1019.04 1019.35 1019.82 1019.99 1020.14 1019.78 1019.23 1018.97 1018.53 1018.32 1018.14 1017.68 1017.56 1017.29 1016.89 1016.70 1016.20 1015.26 1014.06 1013.12 1012.17 1011.36 1010.60 1010.06 1009.61 1009.25 1008.72 1008.83 1009.57 1010.15 1010.51 1010.83 1011.08 1011.12 1011.09 1011.23 1011.45 1011.72 1011.92 1012.17 1012.39 1012.48 1012.33 1012.12 1011.86 1011.57
1017.61 1017.91 1018.37 1018.23 1018.61 1018.84 1019.20 1019.38 1019.36 1019.56 1019.92 1020.18 1020.10 1019.47 1019.01 1018.47 1018.24 1018.07 1017.97 1017.87 1017.56 1017.33 1016.97 1016.68 1016.17 1015.28 1013.82 1012.91 1011.74 1010.93 1010.39 1010.00 1009.39 1008.99 1008.65 1009.07 1009.73 1010.39 1010.93 1011.26 1011.32 1011.51 1011.66 1011.76 1012.00 1012.20 1012.38 1012.53 1012.63 1012.58 1012.49 1012.39 1012.13 1011.85
1017.32 1017.73 1018.00 1018.25 1018.47 1019.11 1019.19 1019.33 1019.56 1019.69 1020.29 1020.43 1020.36 1019.63 1018.94 1018.28 1018.14 1017.96 1018.09 1018.10 1017.66 1017.36 1017.02 1016.42 1015.89 1015.31 1013.82 1012.61 1011.47 1010.84 1010.24 1009.65 1009.29 1009.15 1009.34 1009.62 1010.33 1010.88 1011.30 1011.60 1011.81 1012.00 1012.15 1012.41 1012.62 1012.71 1012.82 1012.97 1012.87 1012.68 1012.70 1012.60 1012.33 1012.15
1017.40 1017.57 1017.84 1018.07 1018.56 1019.12 1019.57 1019.67 1019.83 1020.16 1020.67 1020.67 1020.43 1019.75 1019.07 1018.83 1018.22 1018.10 1017.95 1017.79 1017.63 1017.37 1016.91 1016.58 1015.80 1014.67 1013.31 1012.32 1011.34 1010.50 1010.15 1009.75 1009.81 1010.02 1010.26 1010.53 1010.98 1011.46 1011.75 1012.09 1012.36 1012.61 1012.78 1012.95 1013.14 1013.30 1013.33 1013.33 1013.27 1013.14 1012.96 1012.84 1012.72 1012.57
1017.30 1017.05 1017.70 1018.12 1018.47 1019.12 1019.67 1019.91 1020.31 1020.82 1020.46 1020.53 1019.97 1019.60 1019.31 1019.00 1018.31 1018.00 1017.93 1017.74 1017.88 1017.73 1017.20 1016.83 1016.03 1014.50 1013.69 1012.32 1011.28 1010.71 1010.47 1010.70 1010.82 1010.68 1010.91 1011.19 1011.62 1012.02 1012.34 1012.68 1012.96 1013.15 1013.27 1013.51 1013.70 1013.78 1013.80 1013.78 1013.63 1013.46 1013.34 1013.34 1013.27 1013.03
1017.07 1017.39 1017.78 1018.19 1018.53 1019.24 1020.09 1020.41 1020.78 1020.94 1020.58 1020.08 1019.86 1019.27 1019.02 1018.40 1018.13 1017.85 1017.85 1018.09 1018.26 1017.99 1017.75 1017.26 1016.79 1015.39 1013.85 1012.29 1011.18 1011.19 1011.14 1011.10 1011.31 1011.41 1011.44 1011.76 1012.06 1012.36 1012.66 1012.95 1013.33 1013.57 1013.72 1013.84 1013.96 1014.05 1014.06 1014.00 1013.86 1013.87 1013.86 1013.75 1013.39 1013.10
1017.26 1017.38 1018.10 1018.27 1018.40 1019.23 1020.13 1021.03 1021.02 1020.97 1020.43 1020.41 1020.00 1019.65 1019.36 1018.75 1018.26 1018.20 1018.14 1018.19 1018.46 1018.52 1018.32 1017.48 1016.51 1014.97 1013.31 1012.11 1011.68 1011.52 1011.63 1011.71 1011.58 1011.75 1011.85 1012.11 1012.47 1012.71 1012.97 1013.32 1013.62 1013.87 1014.04 1014.15 1014.14 1014.13 1014.18 1014.22 1014.25 1014.22 1014.09 1013.94 1013.72 1013.51
1017.51 1018.06 1018.39 1018.62 1018.66 1019.27 1020.27 1021.14 1021.53 1021.30 1020.84 1020.73 1020.40 1019.98 1019.58 1018.94 1018.90 1018.79 1018.65 1018.52 1018.45 1018.45 1018.06 1016.90 1015.11 1013.46 1012.72 1011.99 1012.13 1012.10 1012.10 1012.13 1011.85 1011.67 1011.74 1012.08 1012.41 1012.78 1013.14 1013.37 1013.55 1013.80 1014.03 1014.18 1014.23 1014.26 1014.19 1014.17 1014.28 1014.32 1014.25 1014.04 1013.83 1013.67
1018.14 1018.78 1019.04 1018.88 1019.20 1019.72 1020.17 1020.83 1021.25 1021.55 1021.20 1020.96 1020.64 1020.52 1019.75 1019.45 1019.12 1019.19 1019.20 1019.12 1018.60 1017.83 1016.64 1015.10 1013.94 1013.10 1012.68 1012.53 1012.40 1012.43 1012.32 1012.25 1012.18 1012.14 1011.78 1011.82 1012.23 1012.68 1012.98 1013.32 1013.61 1013.81 1013.86 1013.88 1013.94 1013.96 1014.13 1014.12 1014.24 1014.32 1014.25 1014.02 1013.89 1013.73
1018.59 1018.88 1019.18 1019.42 1019.67 1020.21 1020.42 1021.07 1021.42 1021.69 1021.72 1021.22 1021.15 1020.93 1020.39 1019.79 1019.57 1019.64 1020.07 1019.31 1017.85 1016.16 1015.41 1014.32 1013.72 1013.55 1013.14 1012.76 1012.41 1012.37 1012.27 1012.16 1011.92 1011.94 1012.02 1012.14 1012.28 1012.61 1012.76 1012.93 1013.40 1013.47 1013.62 1013.71 1013.81 1013.85 1013.93 1014.05 1014.26 1014.29 1014.19 1014.05 1013.94 1013.82
1018.78 1019.08 1019.64 1019.94 1020.15 1020.20 1021.02 1021.42 1021.50 1021.46 1021.39 1021.12 1021.23 1021.02 1020.27 1020.18 1020.25 1020.21 1019.59 1018.18 1016.45 1015.01 1014.57 1014.29 1013.82 1013.61 1013.35 1012.78 1012.64 1012.42 1012.23 1012.22 1011.87 1011.65 1011.60 1011.70 1011.91 1012.13 1012.32 1012.53 1012.84 1013.10 1013.30 1013.41 1013.64 1013.79 1013.96 1014.14 1014.17 1014.18 1014.13 1014.10 1014.05 1013.86
1018.79 1019.44 1019.72 1019.83 1019.99 1020.41 1021.18 1021.37 1021.53 1021.59 1021.51 1021.30 1021.18 1020.56 1020.09 1020.13 1020.26 1019.44 1018.39 1016.73 1014.91 1014.40 1014.35 1014.06 1013.99 1013.46 1012.85 1012.77 1012.66 1012.19 1012.11 1012.08 1011.93 1011.65 1011.55 1011.66 1011.81 1011.89 1012.07 1012.21 1012.39 1012.74 1012.90 1013.17 1013.49 1013.67 1013.82 1013.93 1014.02 1014.13 1014.20 1014.22 1014.11 1013.99
1019.33 1019.63 1019.75 1019.43 1019.47 1020.16 1020.68 1021.10 1021.34 1021.47 1021.13 1020.76 1020.77 1020.19 1019.99 1020.34 1019.42 1018.30 1017.00 1015.22 1014.30 1013.85 1013.65 1013.65 1013.68 1013.69 1013.36 1012.81 1012.51 1012.25 1012.23 1012.27 1012.05 1011.74 1011.48 1011.70 1011.74 1011.96 1012.02 1012.18 1012.35 1012.50 1012.80 1013.20 1013.36 1013.49 1013.64 1013.81 1013.99 1014.15 1014.21 1014.21 1014.11 1014.02
1018.79 1018.85 1018.84 1018.52 1018.88 1019.30 1019.64 1020.31 1020.66 1020.45 1020.37 1020.29 1019.94 1019.76 1020.05 1019.55 1018.38 1016.50 1014.94 1013.80 1013.53 1013.45 1013.37 1013.54 1013.62 1013.36 1013.11 1012.98 1012.55 1012.18 1012.16 1012.34 1012.35 1012.16 1011.65 1011.61 1011.55 1011.54 1011.59 1011.90 1012.10 1012.12 1012.29 1012.59 1012.89 1013.07 1013.29 1013.58 1013.83 1013.97 1014.02 1013.97 1013.88 1013.91
1018.07 1017.92 1018.06 1018.20 1018.40 1018.90 1019.39 1019.82 1019.94 1019.94 1019.64 1019.26 1018.86 1019.23 1019.17 1018.41 1016.32 1014.11 1013.04 1012.95 1012.96 1012.83 1012.98 1013.25 1013.50 1013.30 1013.02 1012.71 1012.45 1012.26 1012.08 1012.15 1012.20 1012.17 1012.08 1011.82 1011.59 1011.47 1011.49 1011.62 1011.70 1011.71 1011.95 1012.24 1012.50 1012.74 1012.96 1013.22 1013.44 1013.58 1013.66 1013.70 1013.80 1013.92
1016.96 1017.03 1017.52 1018.08 1018.41 1018.59 1018.70 1019.07 1019.15 1018.75 1018.08 1018.00 1018.16 1017.94 1017.07 1015.59 1013.87 1012.74 1012.41 1012.32 1012.43 1012.59 1012.73 1012.84 1012.76 1012.59 1012.45 1012.21 1012.08 1012.09 1012.05 1012.18 1012.16 1012.12 1011.87 1011.54 1011.36 1011.39 1011.49 1011.57 1011.76 1011.80 1011.93 1012.19 1012.40 1012.64 1012.87 1013.04 1013.19 1013.30 1013.43 1013.50 1013.50 1013.52
1016.51 1016.93 1017.27 1017.87 1018.18 1018.27 1017.96 1017.69 1017.21 1016.50 1016.12 1016.65 1016.43 1015.54 1014.58 1013.67 1012.68 1012.27 1011.85 1011.97 1012.23 1012.51 1012.19 1011.69 1011.22 1011.34 1011.43 1011.47 1011.44 1011.47 1011.64 1011.82 1012.19 1011.78 1011.31 1010.93 1010.86 1010.81 1011.05 1011.41 1011.72 1011.90 1012.10 1012.28 1012.33 1012.45 1012.84 1012.98 1013.10 1013.03 1013.08 1013.06 1013.01 1013.05
1016.24 1016.56 1016.93 1017.22 1017.34 1016.88 1015.65 1015.92 1015.39 1015.16 1015.35 1015.21 1015.06 1014.41 1013.60 1012.51 1011.63 1011.35 1011.38 1011.47 1011.58 1011.06 1010.37 1010.05 1009.75 1010.15 1010.25 1010.44 1010.17 1010.16 1010.39 1010.55 1010.71 1010.63 1010.24 1010.09 1010.14 1010.44 1010.85 1011.22 1011.51 1011.77 1012.03 1012.22 1012.37 1012.61 1012.65 1012.66 1012.61 1012.63 1012.51 1012.58 1012.67 1012.69
1015.58 1016.35 1016.50 1016.45 1015.91 1015.02 1014.82 1015.48 1015.68 1015.69 1015.53 1015.22 1014.89 1014.66 1013.11 1011.91 1010.44 1010.05 1010.09 1009.65 1009.47 1009.21 1009.25 1008.92 1008.81 1008.90 1009.19 1009.18 1009.34 1009.40 1009.23 1009.33 1009.43 1009.57 1009.62 1009.98 1010.24 1010.51 1010.79 1011.07 1011.32 1011.61 1011.96 1012.21 1012.35 1012.49 1012.58 1012.56 1012.46 1012.40 1012.37 1012.33 1012.35 1012.24
1015.63 1015.68 1015.82 1015.78 1015.25 1015.60 1016.00 1015.90 1015.59 1015.31 1014.68 1014.87 1014.34 1013.84 1013.35 1012.85 1011.31 1009.03 1007.70 1008.03 1008.33 1008.37 1007.84 1007.93 1007.94 1007.76 1007.96 1008.38 1008.55 1008.78 1008.94 1009.19 1009.35 1009.59 1009.76 1009.85 1010.20 1010.48 1010.73 1011.01 1011.26 1011.52 1011.76 1011.91 1011.99 1012.05 1012.11 1012.16 1012.07 1011.97 1011.94 1011.93 1011.93 1011.87
1015.99 1016.17 1016.26 1015.97 1015.40 1015.12 1015.41 1015.55 1015.24 1014.78 1014.58 1014.10 1013.52 1013.02 1012.66 1012.45 1011.46 1008.77 1008.24 1008.52 1008.53 1008.34 1008.13 1008.02 1008.15 1008.32 1008.59 1008.77 1008.91 1008.96 1009.17 1009.55 1009.69 1009.71 1009.79 1009.95 1010.08 1010.29 1010.49 1010.68 1010.82 1010.96 1011.15 1011.25 1011.31 1011.39 1011.51 1011.63 1011.68 1011.69 1011.69 1011.67 1011.57 1011.45
Thickness
5496 5486 5477 5470 5462 5457 5454 5447 5435 5424 5412 5413 5408 5402 5403 5400 5402 5402 5407 5404 5408 5415 5427 5434 5436 5442 5452 5458 5466 5465 5485 5491 5493 5503 5507 5518 5520 5528 5527 5533 5527 5522 5519 5522 5525 5523 5529 5556 5550 5552 5559 5558 5557 5552
5489 5480 5472 5465 5458 5450 5448 5439 5428 5417 5409 5408 5407 5404 5395 5394 5396 5394 5397 5399 5399 5403 5419 5425 5430 5434 5436 5441 5440 5450 5451 5459 5469 5494 5511 5518 5522 5529 5529 5527 5531 5524 5535 5535 5537 5540 5550 5551 5554 5552 5551 5552 5551 5550
5483 5473 5465 5458 5452 5446 5442 5429 5423 5415 5407 5407 5402 5402 5396 5393 5389 5392 5391 5391 5393 5399 5415 5421 5428 5430 5431 5433 5435 5434 5448 5450 5443 5434 5456 5494 5508 5524 5524 5528 5526 5526 5534 5528 5531 5545 5543 5544 5545 5544 5542 5544 5542 5541
5478 5468 5459 5452 5449 5446 5437 5426 5415 5409 5407 5406 5400 5398 5395 5392 5387 5388 5388 5389 5391 5393 5400 5422 5420 5423 5427 5429 5429 5428 5432 5432 5427 5418 5428 5463 5488 5513 5521 5526 5529 5532 5525 5526 5530 5537 5534 5539 5542 5539 5536 5536 5535 5535
5471 5461 5455 5447 5441 5440 5432 5420 5411 5405 5403 5401 5399 5397 5396 5393 5390 5388 5389 5388 5388 5388 5400 5411 5417 5420 5425 5424 5423 5422 5419 5417 5415 5419 5418 5442 5463 5490 5503 5510 5520 5524 5529 5525 5531 5542 5541 5543 5538 5531 5530 5529 5527 5527
5467 5457 5449 5441 5435 5432 5427 5415 5409 5405 5400 5399 5397 5394 5393 5394 5391 5390 5391 5386 5384 5386 5389 5403 5419 5420 5421 5421 5421 5418 5411 5403 5396 5399 5413 5429 5435 5451 5492 5512 5526 5532 5529 5532 5533 5531 5530 5528 5523 5520 5520 5520 5517 5517
5460 5454 5447 5439 5430 5423 5422 5412 5405 5400 5396 5395 5394 5389 5388 5389 5391 5391 5391 5387 5385 5384 5386 5400 5412 5421 5415 5413 5412 5405 5391 5373 5365 5363 5377 5400 5417 5414 5467 5507 5521 5522 5521 5518 5518 5517 5516 5514 5516 5505 5504 5506 5507 5510
5454 5450 5445 5437 5427 5422 5416 5408 5407 5399 5394 5391 5392 5391 5387 5386 5386 5388 5385 5385 5384 5383 5382 5392 5404 5411 5413 5419 5406 5396 5383 5361 5345 5345 5361 5380 5405 5410 5456 5503 5503 5505 5508 5507 5507 5502 5501 5497 5496 5497 5495 5497 5500 5505
5448 5443 5438 5433 5426 5423 5418 5410 5404 5397 5393 5390 5390 5387 5385 5386 5386 5384 5382 5384 5382 5380 5389 5391 5401 5424 5404 5408 5410 5397 5386 5364 5360 5349 5362 5392 5412 5422 5461 5486 5491 5493 5498 5503 5489 5488 5489 5490 5488 5486 5486 5489 5492 5497
5445 5437 5431 5429 5426 5421 5421 5411 5402 5396 5391 5390 5388 5386 5386 5384 5380 5379 5382 5384 5380 5380 5381 5388 5399 5409 5406 5413 5410 5407 5399 5396 5392 5394 5407 5417 5435 5455 5450 5463 5482 5477 5477 5479 5482 5479 5472 5470 5475 5479 5477 5478 5480 5484
5439 5433 5427 5427 5421 5421 5417 5408 5402 5392 5391 5389 5384 5380 5377 5378 5380 5383 5387 5388 5391 5391 5389 5394 5397 5405 5411 5414 5423 5412 5424 5422 5435 5444 5437 5445 5461 5457 5448 5448 5452 5458 5464 5464 5467 5468 5468 5466 5463 5462 5462 5465 5471 5475
5431 5429 5423 5422 5415 5416 5414 5407 5399 5392 5387 5379 5373 5372 5373 5378 5379 5382 5390 5393 5394 5404 5399 5401 5407 5408 5413 5413 5425 5430 5436 5438 5461 5442 5452 5468 5457 5441 5445 5443 5445 5451 5455 5457 5459 5458 5455 5452 5452 5451 5453 5455 5457 5460
5426 5424 5417 5418 5414 5410 5407 5401 5396 5391 5383 5376 5373 5371 5377 5377 5390 5389 5384 5394 5391 5393 5397 5393 5393 5406 5415 5422 5429 5434 5447 5458 5445 5456 5469 5470 5442 5438 5440 5441 5440 5444 5448 5449 5449 5448 5447 5446 5444 5443 5444 5446 5446 5449
5422 5418 5413 5415 5410 5406 5401 5395 5391 5386 5379 5374 5371 5381 5386 5389 5388 5386 5384 5382 5384 5381 5386 5388 5390 5402 5416 5422 5432 5445 5447 5444 5459 5464 5473 5462 5447 5442 5438 5437 5440 5440 5440 5441 5440 5439 5438 5438 5437 5438 5439 5439 5441 5444
5418 5412 5410 5407 5404 5397 5394 5391 5387 5381 5374 5371 5368 5389 5383 5387 5378 5376 5369 5366 5373 5375 5377 5383 5388 5392 5407 5421 5432 5437 5447 5459 5463 5460 5459 5447 5438 5434 5433 5433 5433 5432 5432 5431 5430 5431 5431 5430 5431 5433 5430 5431 5434 5436
5408 5407 5405 5403 5396 5390 5384 5382 5379 5374 5366 5366 5364 5372 5375 5368 5376 5371 5369 5366 5369 5369 5373 5373 5381 5399 5415 5419 5433 5445 5449 5459 5457 5444 5435 5434 5430 5426 5427 5425 5423 5421 5422 5422 5423 5422 5423 5423 5423 5425 5427 5426 5426 5427
5399 5403 5397 5394 5390 5383 5377 5375 5370 5359 5365 5359 5370 5365 5363 5359 5363 5368 5369 5369 5363 5362 5367 5368 5381 5401 5394 5416 5430 5433 5442 5435 5426 5430 5425 5426 5422 5418 5419 5416 5414 5413 5415 5414 5413 5413 5414 5414 5417 5419 5419 5418 5417 5419
5392 5389 5387 5385 5380 5373 5365 5362 5358 5357 5364 5366 5365 5367 5361 5365 5363 5363 5362 5359 5355 5356 5355 5362 5356 5371 5392 5412 5429 5418 5415 5411 5409 5414 5417 5415 5414 5413 5412 5413 5409 5408 5408 5408 5408 5407 5408 5408 5411 5410 5409 5410 5414 5417
5379 5378 5374 5373 5371 5364 5357 5350 5348 5356 5362 5351 5350 5349 5350 5354 5355 5351 5349 5349 5346 5343 5342 5348 5351 5364 5382 5398 5402 5404 5402 5403 5408 5407 5408 5406 5404 5405 5405 5403 5401 5400 5399 5400 5402 5403 5403 5402 5402 5402 5403 5405 5406 5408
5365 5361 5359 5359 5357 5354 5346 5337 5332 5333 5345 5341 5336 5338 5339 5345 5340 5338 5337 5337 5337 5336 5336 5341 5356 5378 5383 5394 5387 5386 5391 5393 5398 5406 5405 5400 5399 5396 5395 5396 5397 5395 5394 5393 5393 5394 5397 5398 5395 5394 5395 5396 5398 5398
5347 5343 5341 5342 5340 5338 5336 5327 5326 5321 5322 5326 5324 5319 5332 5328 5330 5329 5325 5320 5325 5331 5340 5356 5367 5373 5372 5374 5375 5372 5375 5378 5383 5389 5398 5400 5393 5390 5390 5387 5385 5387 5389 5391 5391 5392 5389 5390 5388 5387 5386 5388 5387 5387
5332 5329 5326 5324 5324 5319 5322 5314 5312 5307 5305 5311 5307 5301 5312 5321 5323 5315 5300 5305 5320 5338 5345 5356 5360 5358 5358 5359 5364 5363 5365 5368 5371 5372 5376 5378 5379 5378 5381 5382 5378 5380 5381 5382 5382 5383 5383 5380 5377 5377 5378 5380 5380 5380
5315 5312 5306 5305 5306 5309 5306 5295 5299 5297 5304 5306 5295 5297 5307 5305 5297 5293 5299 5308 5323 5337 5341 5342 5344 5340 5341 5345 5347 5350 5353 5354 5362 5366 5369 5371 5374 5373 5374 5374 5373 5373 5373 5374 5372 5371 5370 5368 5369 5369 5370 5371 5371 5372
5297 5292 5291 5291 5295 5291 5280 5283 5278 5277 5275 5280 5282 5293 5301 5296 5282 5293 5306 5319 5331 5331 5331 5332 5333 5337 5342 5339 5340 5346 5349 5347 5350 5355 5357 5360 5359 5362 5363 5366 5366 5364 5365 5364 5361 5360 5359 5359 5360 5360 5360 5359 5361 5361
5277 5278 5275 5274 5281 5277 5271 5265 5259 5259 5265 5268 5266 5280 5283 5267 5293 5298 5305 5322 5324 5331 5333 5330 5328 5328 5328 5333 5335 5338 5337 5337 5342 5347 5351 5349 5352 5348 5349 5351 5354 5355 5353 5351 5350 5350 5349 5349 5349 5348 5349 5349 5349 5348
5263 5265 5267 5270 5268 5265 5266 5254 5246 5250 5255 5255 5259 5263 5253 5269 5278 5301 5317 5322 5324 5326 5327 5324 5323 5325 5327 5324 5326 5331 5332 5328 5329 5334 5342 5340 5342 5346 5347 5346 5347 5348 5347 5346 5345 5344 5343 5341 5340 5338 5339 5339 5342 5341
5256 5259 5260 5258 5259 5252 5248 5244 5245 5243 5247 5251 5263 5249 5254 5264 5288 5315 5320 5315 5318 5319 5316 5314 5312 5315 5319 5321 5321 5321 5323 5322 5323 5326 5324 5328 5332 5336 5338 5339 5340 5342 5338 5337 5336 5336 5335 5333 5332 5330 5330 5329 5327 5326
5258 5257 5247 5248 5246 5246 5249 5241 5239 5243 5253 5255 5252 5245 5257 5279 5306 5316 5313 5313 5310 5308 5307 5306 5306 5308 5311 5313 5315 5314 5315 5313 5314 5315 5319 5322 5324 5325 5326 5327 5327 5328 5327 5326 5325 5324 5323 5322 5321 5319 5317 5316 5316 5316
5253 5248 5246 5233 5231 5234 5242 5249 5255 5259 5263 5251 5259 5270 5278 5286 5297 5300 5304 5299 5295 5294 5300 5308 5314 5308 5309 5308 5309 5309 5310 5309 5309 5317 5323 5329 5329 5328 5321 5319 5318 5318 5316 5315 5315 5314 5310 5308 5308 5307 5306 5305 5305 5304
5246 5246 5246 5236 5237 5243 5260 5250 5261 5258 5253 5257 5258 5264 5272 5283 5289 5289 5290 5290 5289 5298 5306 5310 5317 5314 5317 5316 5320 5319 5311 5312 5312 5318 5326 5328 5328 5317 5313 5311 5310 5309 5306 5304 5302 5299 5299 5298 5296 5295 5293 5293 5291 5290
5247 5239 5238 5242 5247 5265 5265 5239 5233 5237 5235 5238 5239 5243 5266 5275 5288 5293 5290 5296 5297 5299 5299 5305 5309 5310 5310 5316 5315 5317 5320 5316 5315 5315 5315 5311 5309 5307 5306 5304 5302 5300 5296 5293 5290 5288 5286 5285 5283 5282 5280 5278 5275 5276
5236 5238 5237 5231 5246 5226 5217 5223 5227 5228 5235 5225 5236 5232 5236 5241 5258 5288 5299 5289 5283 5283 5294 5298 5305 5313 5313 5313 5312 5311 5314 5309 5307 5305 5303 5304 5301 5299 5297 5294 5292 5289 5286 5283 5280 5278 5274 5271 5269 5268 5265 5260 5257 5254
5216 5214 5209 5218 5230 5233 5217 5215 5218 5216 5211 5215 5224 5231 5242 5239 5245 5272 5261 5254 5261 5272 5280 5285 5290 5296 5298 5299 5300 5301 5301 5298 5297 5298 5297 5296 5295 5292 5289 5287 5285 5282 5278 5275 5273 5268 5262 5257 5253 5249 5245 5241 5238 5236